Date String (YYYY-MM-DD hh:mm:ss) UTC,Instrument flags,absolute air pressure of the measurement (hPa),sample flow rate (lpm),inlet stack bypass flow (lpm),air temperature of the measurement (°C),ambient temperature measured by the external sensor (°C),aerosol sample conditioner tube jacket temperature (°C),OPC LED temperature (°C),internal box temperature (°C),relative humidity of the measurement (%),span deviation,mass concentration of particles derived from Lorenz-Mie calculation of OPC scattering (μg/m³),mass concentration of particles derived from Lorenz-Mie calculation of OPC scattering (μg/m³),mass concentration of particles derived from Lorenz-Mie calculation of OPC scattering (μg/m³)
DateTimeUTC,F1_M11,P_M11,Q1_M11,Q2_M11,T1_M11,T2_M11,T3_M11,T4_M11,T5_M11,U1_M11,ZSPAN_M11,X0_M11,X2_M11,X1_M11
2024-02-19 14:00:00,SystemResetWarning,0825.2,5.00,000.00,018.6,017.9,000.0,026.9,020.1,11.5,0000.0,0008.23,0000.94,0000.48
2024-02-19 14:01:00,SystemResetWarning,0825.2,5.00,000.00,018.5,017.8,000.0,026.9,020.1,11.4,0000.0,0008.42,0000.93,0000.48
2024-02-19 14:02:00,SystemResetWarning,0825.0,5.00,000.00,018.5,017.7,000.0,026.9,020.1,11.5,0000.0,0008.25,0000.94,0000.48
2024-02-19 14:03:00,SystemResetWarning,0825.3,5.01,000.00,018.5,017.7,000.0,026.9,020.1,11.5,0000.0,0008.13,0000.92,0000.49
2024-02-19 14:04:00,SystemResetWarning,0825.2,5.00,000.00,018.4,017.6,000.0,026.9,020.0,11.4,0000.0,0008.08,0000.89,0000.49
2024-02-19 14:05:00,SystemResetWarning,0825.3,5.00,000.00,018.4,017.6,000.0,026.9,020.0,11.3,0000.0,0007.71,0000.87,0000.48
2024-02-19 14:06:00,SystemResetWarning,0825.3,5.00,000.00,018.4,017.6,000.0,026.9,020.0,11.3,0000.0,0008.09,0000.88,0000.48
2024-02-19 14:07:00,SystemResetWarning,0825.4,4.99,000.00,018.4,017.5,000.0,026.9,020.0,11.5,0000.0,0008.39,0000.89,0000.48
2024-02-19 14:08:00,SystemResetWarning,0825.3,5.00,000.00,018.4,017.5,000.0,026.9,020.0,11.8,0000.0,0007.99,0000.85,0000.48
2024-02-19 14:09:00,SystemResetWarning,0825.3,5.00,000.00,018.4,017.5,000.0,026.9,020.0,11.6,0000.0,0007.37,0000.82,0000.48
2024-02-19 14:10:00,SystemResetWarning,0825.3,5.01,000.00,018.4,017.5,000.0,026.9,020.0,11.3,0000.0,0006.74,0000.78,0000.47
2024-02-19 14:11:00,SystemResetWarning,0825.6,5.00,000.00,018.4,017.4,000.0,026.9,020.0,11.2,0000.0,0005.94,0000.74,0000.45
2024-02-19 14:12:00,SystemResetWarning,0825.6,4.99,000.00,018.4,017.5,000.0,026.9,020.0,11.5,0000.0,0003.79,0000.74,0000.45
2024-02-19 14:13:00,SystemResetWarning,0825.5,5.00,000.00,018.4,017.5,000.0,026.9,020.0,11.4,0000.0,0003.55,0000.71,0000.45
2024-02-19 14:14:00,SystemResetWarning,0825.4,5.00,000.00,018.4,017.5,000.0,026.9,020.0,11.5,0000.0,0004.20,0000.72,0000.46
2024-02-19 14:15:00,SystemResetWarning,0825.5,5.00,000.00,018.4,017.5,000.0,026.9,020.0,11.4,0000.0,0005.72,0000.74,0000.46
2024-02-19 14:16:00,SystemResetWarning,0825.7,5.00,000.00,018.4,017.4,000.0,026.9,020.0,11.7,0000.0,0005.88,0000.78,0000.46
2024-02-19 14:17:00,SystemResetWarning,0825.6,5.00,000.00,018.4,017.4,000.0,026.9,020.0,11.8,0000.0,0005.77,0000.78,0000.46
2024-02-19 14:18:00,SystemResetWarning,0825.7,4.98,000.00,018.4,017.4,000.0,026.9,020.0,11.7,0000.0,0004.94,0000.72,0000.45
2024-02-19 14:19:00,SystemResetWarning,0825.8,4.99,000.00,018.4,017.4,000.0,026.9,020.0,11.6,0000.0,0004.65,0000.70,0000.44
2024-02-19 14:20:00,SystemResetWarning,0825.9,5.01,000.00,018.4,017.4,000.0,026.9,020.0,11.6,0000.0,0004.54,0000.69,0000.44
2024-02-19 14:21:00,SystemResetWarning,0825.7,5.01,000.00,018.4,017.4,000.0,026.9,020.0,11.6,0000.0,0004.53,0000.69,0000.45
2024-02-19 14:22:00,SystemResetWarning,0825.8,5.00,000.00,018.4,017.5,000.0,026.9,020.0,11.4,0000.0,0005.20,0000.69,0000.45
2024-02-19 14:23:00,SystemResetWarning,0825.8,4.99,000.00,018.4,017.5,000.0,026.9,020.0,11.3,0000.0,0005.41,0000.70,0000.46
2024-02-19 14:24:00,SystemResetWarning,0825.7,5.00,000.00,018.4,017.5,000.0,026.9,020.0,11.4,0000.0,0006.76,0000.70,0000.46
2024-02-19 14:25:00,SystemResetWarning,0825.8,4.99,000.00,018.4,017.5,000.0,026.9,020.0,11.5,0000.0,0007.50,0000.72,0000.46
2024-02-19 14:26:00,SystemResetWarning,0825.8,5.00,000.00,018.4,017.5,000.0,026.9,020.0,11.6,0000.0,0006.28,0000.67,0000.46
2024-02-19 14:27:00,SystemResetWarning,0825.9,5.00,000.00,018.4,017.5,000.0,026.9,020.0,11.6,0000.0,0006.36,0000.64,0000.45
2024-02-19 14:28:00,SystemResetWarning,0825.9,5.00,000.00,018.4,017.6,000.0,026.9,020.0,11.6,0000.0,0005.89,0000.61,0000.44
2024-02-19 14:29:00,SystemResetWarning,0825.9,5.01,000.00,018.4,017.6,000.0,026.9,020.0,11.9,0000.0,0005.49,0000.61,0000.43
2024-02-19 14:30:00,SystemResetWarning,0825.9,5.00,000.00,018.4,017.6,000.0,026.9,020.0,11.5,0000.0,0005.47,0000.61,0000.44
2024-02-19 14:31:00,SystemResetWarning,0825.9,4.98,000.00,018.4,017.6,000.0,026.9,020.0,11.7,0000.0,0005.34,0000.59,0000.43
2024-02-19 14:32:00,SystemResetWarning,0825.9,4.99,000.00,018.4,017.6,000.0,026.9,020.0,11.3,0000.0,0005.32,0000.58,0000.42
2024-02-19 14:33:00,SystemResetWarning,0825.9,5.00,000.00,018.4,017.6,000.0,026.9,020.0,11.3,0000.0,0004.66,0000.58,0000.42
2024-02-19 14:34:00,SystemResetWarning,0825.9,5.02,000.00,018.4,017.6,000.0,026.9,020.0,11.5,0000.0,0004.64,0000.59,0000.43
2024-02-19 14:35:00,SystemResetWarning,0825.8,5.00,000.00,018.4,017.6,000.0,026.9,020.0,11.5,0000.0,0003.19,0000.58,0000.42
2024-02-19 14:36:00,SystemResetWarning,0825.8,4.99,000.00,018.4,017.6,000.0,026.8,020.0,11.5,0000.0,0003.07,0000.57,0000.42
2024-02-19 14:37:00,SystemResetWarning,0825.9,4.99,000.00,018.4,017.6,000.0,026.9,020.0,11.6,0000.0,0004.45,0000.61,0000.42
2024-02-19 14:38:00,SystemResetWarning,0826.0,5.01,000.00,018.4,017.6,000.0,026.9,020.0,11.6,0000.0,0003.89,0000.67,0000.42
2024-02-19 14:39:00,SystemResetWarning,0825.9,5.01,000.00,018.4,017.6,000.0,026.9,020.0,11.1,0000.0,0003.86,0000.68,0000.42
2024-02-19 14:40:00,SystemResetWarning,0825.9,4.99,000.00,018.4,017.6,000.0,026.9,020.0,11.1,0000.0,0003.78,0000.73,0000.43
2024-02-19 14:41:00,SystemResetWarning,0825.9,4.99,000.00,018.3,017.6,000.0,026.9,020.0,11.0,0000.0,0003.83,0000.75,0000.44
2024-02-19 14:42:00,SystemResetWarning,0825.9,5.00,000.00,018.3,017.6,000.0,026.9,020.0,11.1,0000.0,0003.86,0000.77,0000.45
2024-02-19 14:43:00,SystemResetWarning,0825.9,5.00,000.00,018.3,017.6,000.0,026.9,020.0,11.2,0000.0,0004.06,0000.78,0000.45
2024-02-19 14:44:00,SystemResetWarning,0825.9,5.00,000.00,018.3,017.6,000.0,026.9,020.0,11.3,0000.0,0004.48,0000.81,0000.47
2024-02-19 14:45:00,SystemResetWarning,0825.9,5.00,000.00,018.3,017.6,000.0,026.8,020.0,11.4,0000.0,0004.26,0000.79,0000.46
2024-02-19 14:46:00,SystemResetWarning,0825.9,5.01,000.00,018.3,017.6,000.0,026.9,020.0,11.5,0000.0,0004.02,0000.77,0000.46
2024-02-19 14:47:00,SystemResetWarning,0825.9,5.00,000.00,018.3,017.6,000.0,026.9,020.0,11.2,0000.0,0003.64,0000.77,0000.46
2024-02-19 14:48:00,SystemResetWarning,0826.0,4.98,000.00,018.3,017.6,000.0,026.9,020.0,11.2,0000.0,0001.77,0000.74,0000.46
2024-02-19 14:49:00,SystemResetWarning,0826.0,5.00,000.00,018.3,017.6,000.0,026.9,020.0,11.2,0000.0,0001.56,0000.69,0000.46
2024-02-19 14:50:00,SystemResetWarning,0826.0,5.01,000.00,018.4,017.6,000.0,026.9,020.0,11.4,0000.0,0001.57,0000.69,0000.47
2024-02-19 14:51:00,SystemResetWarning,0826.0,5.00,000.00,018.4,017.6,000.0,026.9,020.0,11.2,0000.0,0001.53,0000.65,0000.46
2024-02-19 14:52:00,SystemResetWarning,0826.1,5.00,000.00,018.4,017.6,000.0,026.9,020.0,11.0,0000.0,0001.54,0000.65,0000.46
2024-02-19 14:53:00,SystemResetWarning,0826.0,5.00,000.00,018.4,017.6,000.0,026.9,020.0,11.0,0000.0,0001.57,0000.66,0000.46
2024-02-19 14:54:00,SystemResetWarning,0826.0,5.01,000.00,018.4,017.6,000.0,026.9,020.0,11.0,0000.0,0001.57,0000.65,0000.46
2024-02-19 14:55:00,SystemResetWarning,0825.9,5.00,000.00,018.4,017.6,000.0,026.9,020.0,11.0,0000.0,0001.70,0000.60,0000.44
2024-02-19 14:56:00,SystemResetWarning,0826.1,5.00,000.00,018.4,017.6,000.0,026.9,020.0,11.2,0000.0,0001.73,0000.61,0000.44
2024-02-19 14:57:00,SystemResetWarning,0826.3,5.00,000.00,018.4,017.7,000.0,026.9,020.0,11.2,0000.0,0001.83,0000.63,0000.44
2024-02-19 14:58:00,SystemResetWarning,0826.2,5.00,000.00,018.4,017.7,000.0,026.9,020.0,11.4,0000.0,0001.83,0000.62,0000.44
2024-02-19 14:59:00,SystemResetWarning,0826.2,4.99,000.00,018.4,017.7,000.0,026.8,020.0,11.3,0000.0,0001.80,0000.60,0000.43
